Theta_e
321 320 320 321 321 321 322 322 322 323 323 323 323 323 323 323 323 323 322 322 321 321 320 320 321 320 320 320 320 320 319 319 319 320 321 323 324 326 327 326 326 326 326 325 325 324 324 324 324 324 324 324 324 324 324 325 325 326 326 327 329 330 331 331 330 329 328 328 327 326 324 323 322 322 322 323 323 322 322 321 320 320 319 317 315 314
321 321 320 321 321 322 322 322 323 323 322 323 322 322 322 323 322 322 322 322 321 321 321 321 321 320 321 320 320 320 320 320 320 320 320 321 323 325 326 326 326 326 326 326 325 325 324 324 324 324 324 324 324 324 324 324 325 325 326 327 328 330 331 331 330 329 328 328 327 326 325 323 322 321 322 322 323 322 322 321 320 320 319 317 316 315
321 321 321 321 321 322 323 323 323 323 323 323 323 323 323 323 323 323 322 322 322 321 321 321 321 321 321 321 321 321 320 320 320 320 321 322 324 325 326 326 326 326 326 326 325 325 325 324 324 324 324 324 324 324 324 324 324 325 326 327 328 329 330 331 331 330 328 327 327 326 325 323 322 321 322 322 323 322 321 321 321 320 319 317 316 315
321 321 321 321 321 322 323 323 324 324 324 324 323 323 323 323 323 323 323 323 322 322 322 322 322 322 322 321 321 321 321 321 321 322 323 324 326 326 327 326 326 326 326 325 325 325 325 324 324 324 324 324 324 324 324 324 324 324 325 325 326 327 329 330 330 330 328 327 326 325 325 323 322 321 322 323 323 322 321 321 321 320 319 318 316 316
322 321 321 321 321 322 323 323 324 324 324 324 324 324 323 323 323 323 323 323 323 322 322 322 322 322 322 322 322 322 321 322 323 324 325 326 326 327 327 326 326 326 326 326 325 325 325 324 324 324 324 325 324 324 324 323 323 323 323 324 325 326 327 328 329 330 328 327 325 325 324 323 322 321 322 323 323 322 320 320 320 320 319 318 317 316
322 322 322 322 321 321 322 323 324 324 324 324 324 324 323 323 323 323 323 323 323 323 323 323 323 323 323 323 323 323 322 323 324 325 326 326 326 326 326 326 326 326 326 325 325 325 325 324 324 324 325 325 325 325 324 324 323 323 323 323 324 324 325 326 328 329 329 327 325 324 324 323 322 322 322 323 323 322 319 319 320 320 319 318 317 316
323 322 322 322 322 322 322 322 323 324 324 324 324 324 324 324 324 324 324 324 323 323 323 323 323 323 323 323 323 323 324 324 325 326 326 326 326 326 326 326 326 326 325 325 325 325 324 324 324 324 324 325 325 325 324 324 324 324 323 323 323 323 324 325 326 327 328 328 326 324 324 323 322 322 322 323 323 321 319 319 319 319 319 318 317 316
323 323 323 323 322 322 322 322 323 323 324 324 324 324 324 324 324 324 324 324 324 324 323 323 323 323 323 323 324 324 324 325 325 325 325 325 325 325 325 325 325 325 325 325 324 324 324 324 324 324 324 324 324 324 324 324 324 324 323 323 323 322 323 323 324 326 328 327 326 325 323 323 323 323 323 323 323 321 317 318 319 319 318 318 317 316
323 323 323 323 323 323 323 322 323 323 324 324 324 324 324 324 324 324 324 324 324 324 324 323 323 323 323 324 324 324 324 324 324 324 324 324 324 324 324 325 325 324 324 324 324 324 324 323 323 324 324 324 324 324 324 324 323 323 323 323 323 322 322 322 323 325 326 327 326 325 323 323 323 323 323 323 322 320 317 317 318 319 318 318 317 316
323 323 323 323 323 323 323 323 323 323 323 324 324 324 324 324 324 324 324 324 324 324 324 324 324 323 324 324 324 324 324 324 324 324 324 324 324 324 324 324 324 324 324 323 323 323 323 323 323 324 324 324 324 324 324 324 323 323 323 323 323 322 322 322 322 323 325 326 326 325 324 323 322 322 323 323 322 319 316 317 318 319 318 317 317 316
323 323 323 323 323 323 324 324 323 323 323 323 324 324 324 324 324 324 324 324 324 324 324 324 324 324 323 323 323 324 323 323 323 323 323 323 323 323 323 323 323 323 323 323 323 323 323 323 323 324 323 324 324 323 323 323 323 323 323 323 322 322 321 321 321 322 324 325 326 325 324 323 322 321 322 322 321 319 316 317 318 319 318 317 317 316
323 324 324 324 323 323 323 324 324 324 324 323 324 324 324 324 324 325 324 324 324 324 323 323 324 324 324 323 323 323 323 323 323 323 323 323 323 322 322 322 322 322 322 322 322 323 323 323 323 323 323 323 323 323 322 322 322 322 322 322 322 322 321 321 321 322 323 324 325 325 324 322 321 321 321 322 321 319 316 317 319 319 318 317 316 316
318 320 322 323 323 323 323 323 323 322 322 323 323 324 324 325 325 325 325 324 324 324 323 323 323 323 324 324 324 323 323 323 322 322 322 322 322 322 321 321 321 321 321 321 321 322 322 322 322 322 322 322 321 321 321 321 321 322 322 322 322 321 321 321 321 321 322 323 324 324 323 321 320 320 320 321 321 319 316 317 318 319 318 317 316 316
311 314 317 319 321 321 322 321 320 320 320 322 323 324 325 325 325 325 325 325 324 324 324 323 323 323 323 324 324 324 323 323 322 322 322 321 321 321 321 321 320 320 320 320 320 321 322 321 321 321 320 320 320 320 320 320 320 321 321 321 321 321 321 320 320 321 321 322 322 323 322 321 319 319 320 320 320 319 316 318 318 318 317 317 316 316
308 310 313 315 318 319 321 320 320 320 320 321 322 323 323 324 324 324 324 324 324 324 324 323 323 322 322 323 323 324 323 322 322 321 321 321 321 321 320 320 319 319 319 318 319 320 321 320 320 320 320 319 319 319 319 319 320 320 320 320 320 320 320 320 320 320 321 321 322 322 321 320 318 318 318 319 319 319 316 318 318 318 317 317 316 316
307 309 310 313 315 317 318 319 319 320 320 321 322 322 322 322 322 322 322 323 323 323 322 321 320 320 320 321 322 322 322 322 321 320 319 319 320 319 319 319 318 317 317 317 318 319 319 319 319 319 319 319 319 319 319 319 319 319 319 319 319 319 320 320 320 320 320 320 321 320 320 318 317 317 317 319 319 318 316 317 318 318 317 317 317 316
306 307 308 310 311 313 314 315 317 319 319 320 321 321 321 321 321 321 321 321 321 320 320 319 317 316 316 317 319 320 321 321 320 319 318 318 318 318 317 317 317 316 316 316 316 317 317 317 317 317 317 318 318 318 318 318 318 319 319 319 319 319 319 319 319 319 319 320 320 319 319 317 316 316 317 318 319 318 316 317 318 318 317 317 317 316
306 306 307 308 309 309 310 312 314 316 317 318 319 319 320 321 321 321 321 320 319 318 318 318 317 316 314 314 316 318 319 320 319 318 317 317 317 317 316 316 316 316 315 315 315 315 315 315 316 316 316 317 317 317 317 317 318 318 318 318 318 318 318 318 319 319 319 319 319 318 318 317 316 317 317 318 319 319 317 317 317 318 317 317 317 316
305 305 306 307 307 308 308 309 311 312 311 311 312 314 317 319 319 320 320 319 318 318 317 317 317 317 316 316 317 317 318 319 318 317 316 315 315 315 315 315 315 315 315 314 315 315 314 314 314 315 315 315 315 316 316 316 317 317 317 317 318 318 318 318 318 318 318 318 318 317 317 317 317 317 318 318 319 319 319 318 317 317 317 317 317 316
303 303 305 306 306 306 307 307 308 307 306 306 306 307 311 314 317 318 318 318 318 318 318 317 317 317 317 318 318 317 317 317 317 316 315 314 314 314 315 314 314 314 314 314 314 314 314 313 314 314 314 314 315 315 315 316 316 316 317 317 317 318 318 318 318 318 318 318 317 317 317 317 317 317 318 318 318 318 318 317 317 317 317 317 317 316
300 301 303 304 305 305 305 305 304 304 303 303 304 305 307 309 312 315 316 316 317 317 317 317 316 317 317 317 317 317 316 316 315 314 314 313 313 313 314 314 313 313 313 313 314 313 313 313 313 313 313 314 314 315 315 315 315 316 316 317 317 317 318 318 318 318 317 317 317 316 317 317 317 318 318 318 318 317 317 316 316 317 317 317 316 315
300 301 302 302 302 302 302 301 301 301 301 301 302 304 305 306 308 309 311 313 315 315 316 316 317 317 317 317 317 316 316 316 315 314 313 312 312 313 313 313 313 312 312 313 313 313 312 312 312 313 313 314 314 314 315 315 315 316 316 317 317 317 318 318 317 317 317 316 316 316 317 317 317 318 318 318 317 317 316 316 317 317 317 316 315 314
300 300 300 299 298 298 298 298 299 299 299 300 300 302 303 304 305 306 307 309 311 313 314 315 316 316 316 316 316 316 315 315 316 315 313 311 312 313 312 312 312 312 312 312 312 312 312 312 312 312 313 313 314 314 314 315 315 315 316 316 317 317 317 317 317 316 316 316 316 316 317 317 318 318 318 317 317 316 316 316 317 317 316 316 315 313
298 297 296 295 295 296 296 296 297 298 298 298 299 299 301 303 304 305 306 307 308 309 311 313 314 314 315 315 315 315 315 315 315 315 314 313 313 313 312 311 311 311 311 311 311 311 311 312 312 312 312 313 313 314 314 314 314 315 315 316 317 317 317 317 316 316 316 316 316 317 317 317 318 318 318 317 316 315 315 316 317 317 316 315 314 312
293 293 293 293 294 294 295 295 296 296 297 297 298 299 300 301 303 304 306 307 307 308 310 312 313 312 312 313 314 314 314 314 314 314 314 313 313 311 310 311 311 310 310 310 311 311 311 311 311 312 312 313 313 313 313 314 314 314 315 316 316 316 316 316 316 316 316 316 316 317 317 317 317 318 318 317 316 315 315 316 316 316 316 314 312 312
291 292 292 292 293 293 294 294 294 295 296 296 297 298 299 300 302 304 305 306 307 308 310 311 311 311 311 311 311 312 312 313 313 314 314 313 312 310 309 310 310 310 310 310 310 310 310 310 311 311 312 312 313 313 313 313 314 314 315 315 316 316 316 316 315 315 316 316 316 316 317 317 317 317 317 317 316 315 315 315 316 316 315 313 311 311
290 291 291 291 291 292 292 293 294 294 295 295 296 297 298 299 301 303 305 306 307 308 309 310 310 310 310 309 309 310 311 312 312 313 313 313 312 309 308 309 309 309 309 308 308 309 309 310 310 310 311 311 312 312 313 313 313 314 314 315 315 315 315 315 315 315 315 316 316 316 316 316 317 317 317 316 315 315 314 315 315 315 313 312 311 311
290 290 290 291 291 291 291 292 293 293 294 295 295 296 296 298 300 303 304 306 307 308 309 309 309 309 309 308 308 309 310 311 311 312 312 312 312 310 307 308 308 308 308 307 306 307 308 308 309 310 310 311 312 312 313 313 313 314 314 314 314 315 315 315 315 315 315 315 315 316 316 316 316 316 316 315 314 314 314 314 314 314 312 311 311 311
289 290 290 290 290 291 291 292 292 293 294 294 295 295 295 296 298 301 303 304 306 307 308 309 309 309 309 310 309 309 309 309 310 311 311 311 310 309 307 307 307 307 306 305 305 305 306 307 308 309 310 311 311 312 312 313 313 313 314 314 314 314 315 315 315 315 315 315 315 315 315 315 316 316 315 314 314 314 314 314 313 312 311 310 310 309
289 289 289 289 290 290 291 291 292 292 293 294 294 295 295 296 297 299 301 303 305 306 307 308 308 309 309 309 307 306 306 308 309 310 311 310 309 307 305 305 305 305 306 304 303 303 304 305 306 308 309 310 311 311 312 312 312 313 313 313 314 314 314 315 315 315 315 314 314 314 314 314 314 315 314 314 313 313 313 313 312 311 310 310 309 309
289 289 289 289 289 290 290 290 291 291 292 293 294 295 296 296 297 299 300 301 303 305 306 307 308 309 309 308 307 305 306 307 309 310 310 310 309 307 305 304 304 304 305 305 304 303 303 304 305 307 308 309 310 311 311 312 312 312 312 313 313 314 314 315 315 314 314 314 314 314 314 313 313 313 313 313 313 312 312 311 311 310 309 309 308 308
289 288 288 289 289 289 289 290 290 291 291 292 293 294 294 296 297 299 300 301 302 303 304 306 307 308 309 309 309 308 308 308 309 309 309 309 308 307 306 305 303 303 304 306 306 306 304 303 303 306 307 308 310 310 311 311 312 312 312 312 312 313 314 314 314 314 313 313 313 313 313 312 312 311 311 311 311 311 311 310 310 309 309 308 307 306
288 288 288 288 288 289 289 289 290 290 291 291 292 292 293 294 295 297 299 300 302 303 304 305 306 307 308 308 309 309 310 310 309 309 309 309 308 306 305 305 304 303 303 304 306 307 306 303 303 304 306 307 308 309 310 311 311 311 312 312 312 312 312 313 313 313 312 312 312 312 312 311 311 310 310 310 310 310 310 310 310 310 309 309 307 305
288 288 288 288 288 288 289 289 289 290 290 291 291 292 292 293 294 295 296 298 300 302 304 305 305 306 307 308 308 309 309 310 310 309 309 309 308 307 305 304 303 303 302 302 303 304 305 304 303 303 304 305 306 308 309 310 310 311 311 311 311 311 311 312 312 311 311 310 310 310 310 310 310 309 309 309 309 309 310 310 310 310 310 309 308 305
287 288 288 288 288 288 289 289 289 289 290 290 291 291 292 293 293 294 295 296 298 300 302 304 305 306 307 307 308 308 309 309 309 309 309 309 308 307 305 304 303 303 302 302 302 303 303 303 303 303 303 303 304 305 307 308 309 310 310 311 311 311 311 311 310 310 309 309 309 308 308 308 308 307 307 308 308 309 309 309 309 309 309 309 308 307
287 288 288 288 288 288 289 289 289 289 290 290 290 291 292 292 293 294 294 295 297 298 300 302 304 306 306 307 307 308 308 309 309 309 309 309 309 308 306 305 304 303 303 303 303 303 302 302 302 303 303 303 303 303 305 306 308 309 309 310 310 310 310 310 310 309 309 308 307 307 307 307 306 306 306 307 308 309 309 309 308 308 308 308 308 308
287 288 288 288 288 288 289 289 289 289 290 290 290 291 291 292 292 293 294 295 296 297 298 300 302 304 305 306 306 307 307 308 309 309 309 309 309 308 307 306 305 304 304 304 304 304 304 302 302 302 303 303 303 303 303 304 306 307 308 308 309 309 309 309 309 308 308 307 307 306 306 306 305 305 306 306 308 308 308 307 307 307 307 307 307 307
287 287 287 288 288 288 288 289 289 289 290 290 290 291 291 291 292 292 293 294 294 295 296 297 299 301 303 305 305 305 305 307 308 308 308 308 308 308 308 307 305 304 305 305 305 304 304 303 302 302 303 304 304 303 302 302 303 305 306 307 307 308 308 308 308 307 307 306 306 306 305 305 305 304 304 304 305 305 304 304 305 305 305 306 306 306
287 287 287 287 287 288 288 288 289 289 289 290 290 290 291 291 292 292 292 292 293 293 294 295 296 298 301 303 304 305 304 305 306 307 308 308 308 308 308 307 306 305 305 305 305 305 304 304 303 303 303 303 304 303 302 301 302 303 304 305 306 306 306 306 306 306 306 306 305 304 304 304 304 303 303 303 302 302 302 302 302 303 303 303 303 304
287 287 287 287 287 287 287 287 288 288 288 289 289 289 290 290 290 291 291 291 291 292 292 293 294 297 299 301 303 303 304 304 304 306 307 308 308 308 308 307 306 305 304 304 305 305 304 304 304 304 304 304 304 302 301 301 301 302 303 304 304 305 305 305 306 305 305 305 304 304 303 303 303 303 302 302 302 302 302 302 302 302 302 302 302 301
287 287 287 287 287 287 287 287 287 287 287 287 288 288 289 289 289 290 290 290 291 291 292 293 295 297 299 301 302 303 303 303 304 304 305 307 307 308 308 307 307 306 305 304 304 304 304 304 304 304 304 304 304 302 301 301 301 302 303 303 304 304 304 304 305 305 304 304 304 303 303 303 302 302 302 302 302 302 302 302 301 301 301 301 301 301
287 287 287 287 287 287 287 287 287 287 287 287 288 288 289 289 289 290 290 290 291 292 292 294 295 297 299 301 303 304 304 304 303 303 304 305 306 307 307 307 307 306 305 304 304 304 304 304 304 304 304 304 303 302 301 300 301 302 302 303 303 303 303 303 304 304 304 303 303 303 303 302 302 302 302 301 301 301 301 301 301 301 301 300 301 301
287 287 287 287 287 287 287 287 287 288 288 288 289 289 290 290 291 291 291 291 292 292 293 294 295 297 299 301 303 304 305 304 303 303 303 304 305 306 307 307 307 306 306 304 303 303 303 304 304 304 303 303 303 302 301 300 300 301 302 303 303 302 301 301 302 303 303 303 303 302 302 302 302 302 301 301 301 301 301 301 301 300 300 300 300 300
286 286 286 286 286 286 287 287 287 288 288 288 289 289 289 290 290 291 292 293 293 294 294 294 295 296 297 299 301 303 304 304 303 303 302 303 304 305 306 306 306 306 306 305 304 303 303 303 303 303 303 303 302 302 301 300 300 300 301 302 302 302 302 301 301 301 302 302 302 302 302 302 302 301 301 301 300 300 300 300 300 300 300 300 299 299
286 286 286 286 286 286 287 287 287 287 287 288 288 288 288 288 288 289 290 292 293 294 295 296 296 296 297 298 299 301 302 303 303 303 302 303 304 305 305 306 305 305 305 305 305 304 303 303 302 302 303 302 302 301 300 300 300 300 300 301 301 302 302 302 301 301 301 301 301 301 301 301 301 301 300 300 299 299 299 299 299 299 299 299 299 299
286 286 286 286 286 286 286 286 287 287 287 287 288 288 288 288 288 289 289 291 292 294 295 296 297 298 298 298 299 300 301 302 302 302 303 303 303 304 304 304 304 304 304 305 305 305 304 304 303 302 302 301 301 301 300 300 300 300 300 300 300 301 301 301 301 301 301 301 301 301 301 301 300 300 299 299 299 298 298 298 298 298 298 298 298 298
287 287 287 287 287 287 286 287 287 287 287 287 287 288 288 288 289 289 290 290 291 292 293 294 296 297 298 298 299 299 300 302 302 302 302 302 303 303 303 303 303 303 303 304 304 304 304 304 304 303 302 301 300 300 300 300 300 299 299 299 300 299 299 299 299 300 300 301 300 300 300 300 300 299 299 298 298 298 298 298 298 298 298 298 298 298
286 287 287 287 287 287 287 287 287 287 287 287 287 288 288 289 289 290 290 291 291 292 292 293 294 295 296 298 298 299 300 301 302 301 301 301 302 302 302 302 302 302 302 302 303 303 303 304 304 303 302 301 301 300 299 299 299 299 299 299 299 299 298 298 299 299 300 300 300 300 299 299 299 299 298 298 297 297 297 297 297 298 298 298 297 297
285 285 286 286 287 287 287 287 287 287 287 287 287 288 288 289 290 290 291 291 292 292 293 293 294 295 296 297 298 298 299 300 301 301 301 301 301 301 301 301 301 301 301 301 301 302 302 302 302 302 302 302 302 301 300 299 299 299 299 299 299 298 298 298 298 298 299 299 299 299 299 299 299 299 298 297 297 297 296 296 296 297 297 297 297 297
283 284 284 285 286 286 287 287 287 287 287 287 287 287 287 288 288 288 289 290 290 291 292 292 293 294 294 295 296 297 298 299 300 301 301 301 301 301 301 300 300 300 300 300 300 300 301 301 301 301 301 302 302 301 300 299 298 298 298 298 298 298 297 297 297 298 298 298 298 298 298 299 299 298 298 297 297 296 296 296 296 296 296 297 297 297
282 283 283 284 284 285 285 286 286 287 287 287 287 287 287 287 287 288 288 288 289 289 290 291 291 293 294 294 295 295 296 297 299 300 301 301 300 300 300 300 299 299 299 299 299 299 299 299 299 299 300 300 301 301 300 299 298 298 298 298 298 297 297 297 297 297 297 297 297 297 297 298 298 297 297 297 297 296 296 295 295 295 296 296 296 297
Wind_Speed
29 30 30 30 29 30 33 36 39 41 41 42 41 40 39 39 40 41 41 41 41 42 44 45 46 47 48 49 49 49 49 48 48 46 43 39 36 33 30 30 29 28 28 28 29 30 32 33 34 35 36 38 39 40 41 42 43 43 44 44 45 46 46 46 45 44 44 44 43 42 40 39 39 39 38 38 38 37 37 38 39 38 36 35 33 32
29 29 29 30 29 29 30 33 36 38 40 41 40 40 39 38 39 39 39 39 40 41 43 45 47 48 49 51 51 52 52 52 52 51 49 46 42 37 33 32 31 30 29 29 29 30 31 32 33 34 35 36 37 39 40 41 43 44 45 45 46 46 47 47 46 45 44 44 44 44 43 42 41 40 40 40 39 38 37 38 39 39 38 36 34 32
26 26 28 29 29 29 28 30 33 35 38 39 39 39 38 38 38 38 38 37 38 39 41 43 45 47 49 50 51 52 52 52 52 51 49 46 41 37 34 33 32 31 31 30 30 30 31 32 32 33 34 34 36 37 39 41 43 44 45 46 46 46 46 47 47 46 44 44 45 45 45 44 43 42 41 41 41 39 38 39 40 40 39 37 35 33
25 25 27 28 28 29 28 29 30 32 33 34 35 36 36 36 36 36 36 35 36 37 39 42 44 45 47 48 49 50 50 49 48 46 44 40 37 35 34 33 32 32 31 31 31 32 32 32 32 32 33 33 34 36 38 40 42 44 45 45 45 45 46 47 47 46 45 44 44 46 47 46 44 43 42 43 42 41 38 39 40 41 40 39 36 34
25 26 27 27 27 27 28 28 28 28 29 30 31 31 32 32 33 33 33 34 35 37 39 41 42 43 44 44 45 45 45 43 41 39 38 36 35 34 34 33 32 32 32 32 32 33 33 33 33 33 33 33 34 34 36 38 40 42 43 44 44 44 45 45 46 46 45 44 44 46 47 47 46 44 44 44 44 41 39 39 41 42 42 40 38 35
26 26 26 26 26 26 26 25 25 26 26 27 28 28 29 29 30 30 31 32 34 37 39 40 41 42 42 41 41 41 40 38 37 36 35 35 34 34 34 33 33 32 32 33 33 33 34 34 34 34 34 34 34 34 35 36 38 39 41 42 42 43 43 44 45 46 46 45 45 46 47 47 46 45 45 46 45 42 39 39 41 43 43 41 39 36
24 25 25 25 26 26 25 25 24 24 24 24 25 26 27 27 28 29 30 32 33 35 38 39 40 40 39 39 38 38 37 37 36 36 36 35 35 34 34 33 33 33 33 33 34 34 34 34 34 34 34 34 35 35 35 35 36 37 38 40 41 41 42 43 44 45 46 45 45 47 48 48 46 45 46 47 46 43 40 40 41 43 44 42 40 37
22 22 23 24 24 24 25 25 25 25 24 23 23 24 25 27 28 29 31 32 33 34 35 36 37 37 37 36 36 36 36 36 37 37 37 36 36 35 34 34 34 34 35 34 34 34 34 34 34 35 35 35 35 35 35 34 34 35 36 37 38 40 40 41 42 44 45 46 46 48 49 49 47 45 47 48 46 44 41 40 41 43 44 43 41 38
21 20 21 22 22 22 23 25 27 28 27 25 24 22 23 24 26 28 29 31 33 34 34 33 33 34 35 35 35 35 36 37 37 37 37 37 36 36 36 36 36 36 36 35 35 34 34 34 35 35 35 35 35 35 34 34 33 33 34 35 36 38 39 40 41 43 45 46 47 48 50 50 48 46 48 48 47 44 42 41 42 44 45 44 42 39
23 21 21 22 24 24 24 24 26 29 31 31 30 28 26 24 23 24 24 27 31 34 34 33 32 32 34 35 35 35 35 36 37 37 37 37 37 37 37 37 37 37 36 36 35 35 35 35 35 35 35 35 35 34 34 33 33 32 32 33 34 36 38 39 40 42 44 46 47 48 50 52 50 48 48 48 47 45 43 42 44 46 46 45 43 41
20 22 22 21 23 26 26 26 27 29 32 34 35 35 33 29 26 23 22 23 27 30 31 33 33 32 32 32 34 35 35 35 36 37 37 37 37 37 37 37 37 37 36 36 35 34 34 34 34 34 34 34 34 34 34 33 33 33 33 33 34 35 36 38 39 41 43 45 47 48 50 52 51 50 49 48 46 44 43 43 45 47 47 46 45 42
14 16 19 20 20 21 24 26 28 28 29 28 29 31 32 32 30 27 24 23 25 27 28 31 34 35 34 33 33 33 34 33 34 35 36 37 37 36 36 35 35 35 35 34 34 34 33 33 33 33 33 33 33 33 33 33 33 33 33 33 34 35 35 37 38 40 42 44 46 48 50 52 51 50 50 48 46 44 43 44 47 48 48 48 46 43
11 11 12 15 17 17 18 20 21 22 22 21 21 22 24 28 30 29 27 26 26 27 27 28 31 34 37 37 35 33 32 32 33 34 34 35 36 36 35 34 34 33 33 33 33 33 32 32 31 31 32 32 32 33 33 33 33 34 34 34 34 34 34 35 36 38 40 43 45 48 50 52 51 49 49 48 46 44 43 45 48 50 49 48 47 44
14 14 12 10 10 12 14 15 15 15 17 18 19 20 21 24 26 27 26 25 26 27 28 27 28 31 35 37 37 35 32 32 32 33 33 34 35 35 34 33 32 32 31 31 31 32 32 31 30 30 31 32 32 32 33 33 34 35 35 35 35 34 34 34 35 36 38 41 44 47 50 52 51 49 47 47 46 44 43 46 49 51 50 49 47 45
13 13 12 9 9 9 10 12 13 15 17 19 20 21 22 22 21 21 21 20 22 25 26 25 26 27 30 33 36 37 34 32 31 30 30 31 33 33 32 30 29 29 29 28 29 30 30 29 29 29 30 31 32 33 33 34 35 36 36 36 35 34 34 34 34 35 37 40 43 47 50 51 51 50 48 47 46 44 43 46 49 51 51 50 48 45
12 11 10 9 10 12 12 11 11 14 16 19 21 21 20 19 17 15 16 16 17 18 19 18 17 17 20 26 31 34 33 31 28 26 26 27 28 28 27 26 26 26 26 27 28 29 29 28 28 28 29 29 30 32 33 35 36 37 37 36 36 35 34 34 33 34 36 39 42 46 49 51 51 50 49 48 46 44 43 46 49 51 51 50 47 45
11 10 10 10 11 13 16 17 16 14 13 15 18 20 20 19 17 16 17 15 13 12 13 12 6 3 7 14 21 27 30 28 26 23 22 23 23 24 23 23 24 24 26 27 28 29 28 28 28 28 28 28 29 30 32 33 35 36 37 37 36 35 34 33 33 34 35 38 42 46 49 50 50 49 48 48 47 45 43 45 49 51 51 49 47 45
10 10 10 10 11 13 16 18 19 19 16 14 12 13 17 19 19 18 16 15 12 11 11 11 8 3 2 4 12 21 26 26 24 21 19 20 21 23 23 23 24 25 26 27 28 29 29 28 28 28 28 28 27 28 29 31 33 35 36 36 36 35 34 33 33 33 35 38 42 46 49 49 48 47 47 47 47 46 45 47 50 52 52 49 46 45
11 11 11 11 12 14 15 15 16 19 21 21 21 20 16 14 16 17 17 16 15 14 13 11 10 9 7 6 11 18 22 24 23 20 17 18 20 23 24 24 25 26 27 28 29 29 29 28 28 28 27 27 26 26 27 29 30 32 34 35 35 35 33 33 32 33 36 39 43 46 48 47 46 45 45 45 47 48 49 51 53 53 52 49 46 45
12 12 12 13 14 15 15 14 16 17 19 21 22 22 21 18 14 13 15 16 17 17 16 14 12 12 11 10 11 14 18 21 21 20 18 17 19 22 24 24 24 25 27 28 28 28 27 27 27 26 26 25 25 25 25 26 28 30 32 33 34 34 33 32 33 34 37 41 44 46 46 45 45 44 43 44 46 50 52 55 55 54 51 47 46 46
12 13 13 14 14 14 14 15 17 20 21 22 21 20 19 19 17 14 12 12 14 16 17 15 15 16 15 13 12 14 16 19 21 20 17 16 18 20 22 23 23 24 26 26 26 25 25 25 25 24 24 23 22 22 23 24 25 27 30 32 33 33 32 32 33 35 39 43 45 46 46 45 45 44 42 43 45 49 53 55 54 52 47 45 45 46
12 12 13 14 14 14 15 18 20 22 22 22 20 18 17 17 17 18 18 16 13 13 15 16 18 19 19 17 16 16 17 18 20 19 15 12 14 18 21 21 21 22 24 24 24 23 23 23 23 22 22 21 20 20 20 21 23 25 27 29 31 31 31 32 34 37 41 44 46 46 45 45 45 44 43 43 45 49 52 53 51 47 43 43 45 46
12 13 14 15 16 17 19 22 23 24 24 22 20 18 18 18 18 18 19 20 19 17 17 17 18 19 19 19 18 18 18 19 20 19 15 8 8 14 19 19 19 20 22 22 22 22 22 22 21 21 20 19 19 18 18 19 20 22 25 27 28 30 31 33 36 39 43 45 46 46 45 46 46 45 44 44 46 49 51 51 48 44 40 42 45 47
15 16 18 19 20 21 22 23 25 26 26 25 23 22 22 21 20 20 20 21 22 22 21 19 17 16 16 16 17 18 19 20 20 19 16 12 10 11 15 17 18 19 20 21 21 21 21 21 21 20 19 18 18 17 17 17 18 20 22 24 27 29 31 34 38 42 45 46 46 46 45 45 46 46 46 46 47 49 50 50 46 43 41 44 46 46
19 20 21 21 21 21 22 23 24 25 26 26 26 25 24 23 22 22 22 22 22 22 20 17 14 11 11 13 15 17 20 21 21 20 17 12 10 10 13 15 17 18 19 19 20 20 20 20 20 20 20 19 18 17 16 16 17 18 21 23 26 29 32 36 40 44 46 47 46 45 44 44 45 46 46 46 47 48 49 48 45 42 43 45 46 44
22 22 21 21 21 21 21 21 22 23 24 24 25 25 24 24 23 22 22 20 19 17 16 12 9 8 10 10 12 15 19 21 22 21 19 13 8 8 13 15 16 17 17 18 18 19 19 20 20 20 20 20 19 17 16 16 16 18 21 24 27 31 34 39 42 46 47 47 47 45 44 43 44 44 44 44 46 47 48 47 44 43 44 45 44 42
23 22 22 22 22 22 21 21 21 21 21 22 23 24 24 23 22 20 17 16 15 14 13 7 5 5 8 8 9 13 17 20 22 22 22 17 10 7 11 15 17 16 16 16 17 18 18 19 20 21 21 21 20 19 17 16 17 19 22 26 29 33 37 41 44 47 48 48 47 45 44 43 43 42 42 42 44 46 47 46 45 45 46 45 42 39
22 22 22 22 22 22 21 21 20 20 20 20 21 21 21 21 19 17 15 15 16 14 12 7 4 4 3 5 8 11 15 19 21 23 22 19 12 7 11 15 17 17 15 13 14 17 17 18 20 21 21 22 21 20 19 18 18 20 24 28 32 36 40 43 46 47 48 48 47 46 44 44 43 43 42 43 44 45 46 46 46 46 45 43 40 38
20 20 21 21 21 21 21 20 19 19 18 18 18 18 18 18 17 17 18 19 18 16 13 11 9 7 6 7 8 10 13 18 21 22 22 17 10 8 11 14 17 17 15 10 9 11 14 16 19 20 21 22 22 21 20 20 21 24 27 31 35 39 42 45 46 46 46 46 46 46 45 46 46 46 46 45 45 45 46 46 47 46 44 41 39 37
21 21 21 21 20 20 20 20 20 19 18 18 17 16 16 16 17 19 20 20 19 17 14 13 12 11 10 8 6 5 9 15 20 22 22 17 10 8 11 14 17 18 16 9 4 2 7 12 17 19 21 21 22 22 22 23 26 29 31 35 38 41 44 45 45 45 45 45 45 45 46 47 48 49 49 48 47 47 47 48 47 45 43 41 39 37
23 22 22 21 21 20 20 20 20 19 19 18 17 16 16 16 17 18 19 19 19 19 17 15 14 13 12 6 2 1 3 11 18 21 22 18 13 10 13 15 17 19 18 12 4 1 2 6 12 17 21 21 22 22 23 26 29 32 34 37 39 41 43 44 44 43 43 43 44 45 47 48 49 50 51 50 50 50 50 49 48 45 43 41 39 37
22 22 21 21 21 20 20 20 19 19 19 19 18 17 17 16 17 17 17 18 19 20 20 19 17 16 14 10 7 5 4 9 15 19 21 18 14 13 15 15 17 19 20 18 10 3 2 2 6 13 19 20 22 23 25 27 30 33 35 37 38 40 42 43 42 41 42 42 44 45 47 48 49 50 50 51 51 51 51 50 48 45 43 41 40 38
22 22 22 21 21 20 20 19 19 19 19 19 19 19 18 18 18 18 18 18 19 20 21 20 20 18 16 16 15 14 14 14 15 17 20 19 15 13 15 16 17 18 20 20 14 8 4 3 5 9 15 19 21 23 25 27 30 33 35 37 37 37 40 41 41 41 41 42 44 45 47 48 48 49 50 50 51 51 50 48 47 45 44 43 41 39
22 22 21 21 20 20 19 19 19 19 19 19 19 19 19 19 19 18 19 19 20 20 21 21 21 20 18 16 16 17 18 17 18 18 19 20 18 15 16 17 17 16 17 17 14 9 5 6 7 8 10 16 19 21 24 26 29 32 35 36 36 37 39 40 41 41 41 42 43 44 45 46 47 48 48 49 50 49 48 47 46 45 45 44 42 41
21 21 21 21 20 20 20 19 19 19 19 19 19 19 19 19 19 19 19 20 20 21 22 23 23 23 21 18 16 15 16 17 18 19 19 22 21 18 17 18 18 17 16 15 13 9 5 8 10 11 9 12 16 19 22 25 28 30 33 35 36 37 39 40 40 40 40 40 41 42 43 45 45 46 47 48 48 47 46 45 45 45 44 44 43 42
20 20 20 20 20 20 20 19 19 19 19 18 18 18 18 18 19 19 19 20 21 22 23 25 25 26 25 24 22 20 18 18 18 19 21 23 23 21 18 18 20 21 18 16 15 12 8 8 11 13 12 11 11 14 19 24 27 29 31 33 35 37 39 40 41 40 39 38 39 40 42 43 44 44 45 46 46 46 45 45 44 44 43 43 42 41
19 19 19 20 20 20 20 20 19 19 19 18 18 18 18 18 18 19 20 21 22 23 25 26 26 27 27 28 28 27 25 23 21 20 22 24 25 24 20 20 22 24 22 19 17 16 13 10 9 11 12 12 11 12 16 21 25 27 29 31 33 35 38 39 40 40 39 39 38 39 41 42 42 42 43 44 45 45 44 44 44 43 42 41 40 39
18 18 19 19 20 20 19 19 19 19 19 19 19 19 19 20 21 21 22 23 24 25 25 26 27 27 28 28 29 29 29 28 26 24 23 24 26 26 24 22 24 26 26 23 21 19 16 10 7 6 7 12 14 14 17 21 23 24 27 30 32 34 36 38 39 40 39 39 39 39 41 42 41 40 41 43 44 44 43 42 41 41 40 40 39 38
18 18 18 19 18 18 18 19 19 20 20 21 21 21 22 22 23 23 24 24 25 26 26 26 27 28 29 29 28 28 28 29 29 28 26 26 27 28 27 25 25 27 28 26 25 23 20 15 11 8 6 9 12 14 18 21 23 24 26 28 30 32 35 37 38 39 39 38 38 39 40 41 40 39 39 41 43 42 41 40 39 39 38 38 37 36
18 18 19 18 18 18 18 19 19 21 22 23 23 23 24 24 24 24 25 25 26 26 27 27 27 27 28 28 29 29 29 29 29 29 29 28 29 30 29 28 27 26 27 27 26 24 23 20 19 18 17 15 14 15 17 20 23 25 26 24 23 26 32 35 37 38 38 38 38 38 38 39 39 38 38 40 40 40 40 39 38 38 38 37 36 34
19 19 20 20 19 19 19 19 20 21 22 23 24 24 24 24 24 24 25 25 25 25 25 24 24 25 26 27 29 30 30 29 29 29 30 30 31 31 31 31 29 28 27 27 27 26 25 23 21 20 20 18 18 18 19 21 24 26 26 24 23 26 31 34 36 36 37 38 39 39 39 38 38 38 37 39 39 40 40 39 38 37 38 38 38 37
20 20 21 21 21 21 21 21 22 21 21 21 21 22 22 23 23 24 24 24 23 23 22 22 21 22 23 26 28 29 29 28 28 28 29 31 32 32 33 32 31 30 28 27 27 26 26 25 23 21 20 20 18 17 17 21 24 27 27 26 26 26 28 31 34 35 36 36 37 38 37 37 37 37 37 37 37 38 38 38 38 38 38 37 37 38
20 21 22 22 22 22 22 22 21 20 20 19 19 20 21 22 22 22 22 22 22 22 22 22 21 21 22 23 23 23 24 25 25 26 27 30 32 33 34 34 33 32 30 27 25 25 26 26 25 23 23 22 21 19 18 20 23 25 26 27 27 23 18 23 29 33 34 34 35 36 36 37 37 36 36 36 36 35 35 36 37 38 37 37 36 36
21 22 23 23 23 23 22 21 20 20 20 19 18 19 20 21 22 22 22 21 22 22 22 22 22 21 21 22 22 21 20 21 22 24 26 28 31 33 35 36 35 34 33 29 26 24 24 24 24 24 24 23 22 21 21 22 23 24 25 27 28 27 24 25 30 34 33 33 34 35 36 36 36 35 35 35 35 34 34 34 35 36 37 37 37 36
20 21 22 22 22 22 22 22 22 22 21 21 20 20 20 21 21 21 21 21 22 22 22 21 20 18 18 19 20 20 19 19 20 22 25 27 29 32 35 36 36 36 35 33 30 27 24 23 23 23 24 23 23 22 22 23 24 25 26 26 27 28 28 31 34 35 33 32 32 33 35 36 36 35 34 33 32 32 33 34 35 36 36 36 35 35
19 20 21 21 22 22 22 23 23 22 22 22 21 21 21 21 21 21 21 21 21 21 21 20 18 15 15 16 18 19 19 17 17 20 23 25 28 30 34 35 36 35 35 35 34 32 30 28 27 25 23 22 22 22 24 24 25 25 25 25 25 25 25 29 33 35 35 34 33 34 36 36 36 34 31 31 32 32 33 33 34 35 37 36 35 35
20 20 20 20 21 21 22 23 23 22 22 22 22 22 22 22 22 21 21 21 21 20 20 20 19 18 17 17 18 18 18 16 14 15 19 22 25 28 31 33 33 33 34 35 34 33 33 32 31 29 26 23 20 20 22 25 26 26 26 26 25 24 23 26 31 35 35 34 34 34 36 36 34 32 31 30 31 32 32 33 35 36 37 37 36 35
20 20 21 21 21 21 22 22 22 22 22 22 23 23 22 21 21 21 21 21 21 20 19 18 18 18 17 17 18 18 19 18 16 14 15 19 22 25 28 30 29 29 30 31 32 32 32 32 33 33 32 28 24 21 22 24 26 27 28 28 27 25 23 26 31 34 35 34 35 37 38 37 34 32 30 29 28 28 30 31 34 36 37 37 36 35
20 20 20 20 21 21 21 21 21 21 21 22 22 23 23 22 21 20 21 20 20 19 18 18 17 16 16 16 17 18 18 18 18 16 15 16 18 21 24 26 27 25 25 26 27 27 27 28 30 33 35 33 30 27 25 25 27 28 29 29 28 27 25 26 30 33 34 34 36 38 40 38 36 34 32 29 27 26 27 30 33 35 37 37 36 35
21 20 20 21 21 20 20 20 21 21 21 21 22 23 24 24 23 22 21 20 20 20 19 19 18 17 17 17 18 18 18 18 18 17 17 16 17 19 21 23 23 22 20 19 20 19 19 20 23 27 32 34 33 30 27 27 27 28 28 28 28 28 26 26 29 32 33 34 36 38 39 37 36 34 33 30 28 27 26 27 30 34 37 37 37 36
21 21 20 20 20 20 20 21 21 21 21 22 23 24 24 24 24 23 22 21 21 21 21 21 20 19 18 18 19 19 19 18 18 17 17 16 17 19 20 21 21 18 16 14 12 11 10 9 11 16 23 30 32 31 30 29 28 26 24 25 27 28 27 27 28 31 32 33 35 37 37 35 33 32 32 30 28 26 24 25 27 31 36 38 38 36
Wind_Direction
238 238 237 238 238 235 232 230 227 224 224 225 226 226 227 228 229 230 232 234 238 241 245 248 251 253 255 256 256 255 253 252 251 251 251 249 247 243 240 239 240 240 239 237 236 235 234 233 232 231 230 230 229 229 228 229 229 230 232 233 234 234 234 232 229 226 224 224 223 221 218 214 212 211 212 213 213 213 213 212 209 206 202 197 195 196
235 235 235 236 237 236 234 233 229 226 225 227 228 228 228 228 228 229 230 233 236 240 244 246 248 250 251 252 253 253 252 251 249 248 248 247 247 244 239 238 239 240 240 240 238 237 235 234 233 231 230 229 229 228 228 229 229 230 230 231 232 233 233 232 229 226 222 222 222 221 218 214 212 210 210 212 212 212 213 212 209 205 201 197 196 196
231 231 232 233 234 234 233 233 231 230 228 229 230 230 230 229 229 229 230 232 235 238 241 243 245 246 247 248 249 250 250 249 247 245 243 241 239 237 236 237 239 241 242 242 241 240 238 236 235 233 232 230 230 229 229 229 230 230 230 230 231 231 232 232 231 227 223 221 221 220 218 215 212 210 210 210 211 210 211 211 209 205 201 198 196 195
228 228 229 230 232 232 232 232 232 231 231 232 232 232 231 230 229 230 232 234 236 238 240 241 242 242 243 244 245 245 245 244 241 238 235 233 232 232 234 237 240 242 244 244 244 243 241 239 238 236 235 233 232 232 232 231 231 232 232 231 231 231 232 233 232 230 225 221 219 218 217 215 212 210 209 210 209 209 209 210 208 204 201 198 196 194
227 228 228 229 230 231 231 232 232 232 233 233 233 232 231 230 231 232 234 236 237 238 239 240 240 240 239 239 240 241 240 238 234 230 228 228 230 232 236 239 242 244 246 247 247 246 245 243 242 240 238 237 236 236 235 235 235 234 234 233 233 232 232 233 234 232 227 222 219 218 217 215 212 210 209 209 208 207 206 207 206 203 200 197 195 193
228 227 227 228 229 230 230 230 230 230 231 231 232 232 231 232 232 233 233 234 236 237 238 238 238 237 236 236 236 236 235 233 230 228 228 229 232 234 237 240 243 246 247 248 248 248 247 246 245 244 242 241 240 239 239 238 238 237 236 235 234 233 233 233 234 233 231 225 220 218 217 215 212 210 209 209 207 205 203 205 205 202 199 197 194 192
228 226 226 227 228 230 230 229 228 227 225 226 228 230 231 232 232 233 233 234 234 235 236 236 236 235 234 233 234 233 233 231 231 231 232 233 235 237 239 242 244 246 248 248 248 248 248 248 247 247 246 244 243 242 241 241 240 239 238 237 236 234 233 233 234 234 232 228 223 219 217 216 213 210 209 208 206 204 202 203 202 200 198 196 194 192
227 224 222 224 226 229 231 231 229 227 223 222 223 226 228 230 231 232 234 234 234 234 233 233 234 233 233 233 233 233 233 233 233 234 236 237 238 239 241 243 245 246 247 247 247 247 247 247 247 247 246 245 245 244 243 242 241 239 238 237 236 235 233 233 233 234 233 230 225 220 218 218 216 213 209 207 205 203 201 201 200 199 197 195 193 191
224 221 219 220 222 225 230 233 232 230 226 224 223 223 224 226 229 230 230 231 231 231 231 231 231 233 234 234 234 234 235 235 236 237 238 239 241 242 243 244 245 245 245 245 245 245 245 246 246 246 245 245 245 245 244 243 241 239 237 236 235 234 233 232 232 233 233 231 227 222 219 219 219 216 210 207 205 202 200 200 200 198 196 195 194 192
223 221 221 221 222 224 229 233 234 233 231 232 232 231 230 227 225 225 224 225 226 227 228 228 229 231 234 235 235 235 236 237 238 239 240 242 243 244 245 244 244 243 243 243 243 243 244 244 244 244 244 244 244 244 244 243 241 239 237 235 234 233 232 231 231 231 232 232 229 225 220 219 218 215 209 207 204 201 198 200 200 199 196 195 193 192
227 224 223 223 224 225 227 231 233 233 232 234 236 237 236 231 225 220 218 220 222 223 224 225 226 227 229 231 233 233 234 235 236 238 239 240 241 242 243 243 242 242 242 242 243 243 243 243 243 243 243 244 244 244 243 243 241 239 237 235 233 232 231 230 229 230 231 232 231 227 222 219 216 212 208 206 203 199 196 199 200 198 195 194 193 192
251 238 230 227 225 224 225 227 229 229 228 227 230 233 233 229 224 218 215 217 218 218 218 221 223 224 224 225 227 228 229 230 231 233 235 236 237 238 238 239 240 241 242 243 243 243 242 242 243 243 243 243 243 243 242 241 240 239 237 235 233 232 230 229 228 229 231 232 232 228 223 218 214 210 206 205 202 198 195 198 199 198 195 194 193 192
318 296 267 248 237 229 225 225 226 226 223 221 222 225 225 222 219 216 215 216 216 214 213 214 217 220 223 224 224 223 223 225 227 229 231 232 234 234 235 235 237 240 242 243 244 244 243 243 243 243 243 242 242 241 240 239 239 238 237 236 234 232 230 228 228 228 230 232 231 228 223 217 211 206 203 202 200 197 194 197 198 197 195 194 193 192
346 340 325 299 268 247 235 228 225 225 226 227 228 228 226 222 216 212 212 214 215 213 211 211 213 217 220 222 223 222 221 222 224 227 228 230 231 232 232 233 235 238 241 242 244 245 246 245 244 243 242 241 240 239 238 237 237 236 236 235 234 232 230 228 227 228 230 231 230 227 221 214 208 202 199 200 199 196 193 196 197 196 195 194 194 193
347 346 342 332 315 293 263 241 232 230 232 234 236 240 242 238 227 214 210 212 213 211 209 210 212 216 218 221 222 222 221 221 221 221 222 224 227 229 229 230 233 236 239 240 243 246 248 247 246 244 242 240 238 237 235 235 234 234 234 233 233 231 229 228 227 228 229 230 228 224 218 211 205 199 196 198 198 195 193 196 197 196 195 195 194 194
344 344 342 340 337 331 320 295 264 245 239 237 238 241 246 247 243 232 225 222 217 210 205 205 208 213 216 219 220 219 218 216 214 213 213 216 220 223 225 225 228 232 236 239 243 247 249 248 247 246 244 241 238 236 234 233 232 232 232 231 231 229 228 227 227 228 228 227 225 221 215 208 202 198 196 198 198 195 193 196 197 197 196 195 195 195
342 341 339 337 339 340 339 333 318 294 270 252 242 238 239 242 244 245 243 238 225 209 202 198 191 188 210 212 212 211 211 208 206 206 208 211 215 218 220 221 224 229 235 239 243 246 248 248 247 247 246 244 241 238 235 234 232 231 230 230 229 227 227 226 227 227 227 225 221 217 211 206 201 198 197 199 198 195 194 197 199 198 196 195 195 196
340 342 339 336 335 336 338 339 340 340 335 322 297 267 247 240 238 239 238 233 221 206 200 197 194 180 157 197 204 205 205 204 204 204 207 212 217 219 220 223 226 231 235 239 243 246 247 247 247 248 247 246 243 241 238 235 233 232 230 229 227 225 225 225 226 226 225 222 218 212 208 203 199 197 198 200 199 197 196 199 200 198 196 195 196 197
337 339 339 337 334 332 331 333 343 352 355 351 343 330 306 270 244 232 226 222 216 211 206 204 203 202 196 195 201 203 204 206 206 206 210 217 222 224 225 226 229 233 237 240 243 245 246 247 248 249 249 248 246 243 240 237 234 232 230 228 225 223 223 223 224 224 223 219 214 208 204 200 197 196 199 200 199 197 197 198 199 197 195 194 196 197
328 330 333 335 334 331 327 329 338 345 347 346 344 341 333 319 290 253 231 222 219 217 215 212 212 213 212 211 207 204 203 204 205 207 212 218 223 227 229 228 230 233 237 241 244 245 246 247 249 249 249 247 245 242 240 237 234 231 229 226 223 221 221 222 223 222 219 214 209 204 200 196 195 196 199 199 197 195 194 194 193 193 192 194 196 197
315 315 321 330 334 332 327 329 332 335 338 338 339 339 338 336 328 311 284 254 234 223 219 217 219 221 220 219 213 207 202 198 198 202 210 216 222 227 229 229 229 232 237 242 245 246 246 246 248 248 248 246 243 241 238 235 232 229 226 224 221 219 219 220 220 219 215 209 204 200 196 193 193 196 199 198 196 193 191 190 189 188 190 194 196 196
302 306 317 328 333 332 327 323 322 324 328 334 336 334 333 334 334 331 324 310 285 255 235 227 226 226 225 223 220 215 209 202 199 199 202 210 220 226 229 228 229 232 237 242 245 246 245 246 247 248 247 246 244 241 238 235 231 227 224 221 219 217 217 218 217 214 209 204 200 196 193 192 193 196 198 197 195 192 190 188 188 188 191 195 197 196
310 317 325 330 330 326 321 318 316 317 320 325 327 325 324 323 322 322 323 321 312 295 273 253 239 231 227 224 222 220 215 210 207 204 200 202 218 224 227 226 226 229 236 241 244 244 245 245 247 248 249 248 246 243 240 236 231 226 222 220 217 216 216 215 213 209 204 199 196 194 192 192 194 195 196 195 193 190 188 188 188 189 193 197 197 194
332 332 332 330 328 325 321 318 316 316 316 317 317 318 319 320 320 318 316 316 315 310 297 276 255 239 228 221 218 217 215 213 211 208 205 211 220 223 222 220 220 224 232 238 241 242 244 246 247 248 250 250 248 246 243 238 232 226 222 219 217 216 215 213 209 204 199 196 193 192 192 193 194 194 194 193 191 188 187 187 188 190 194 197 195 191
332 330 328 326 325 323 322 319 317 316 315 315 314 314 316 319 321 319 316 314 315 314 305 284 263 244 230 217 211 210 213 213 212 209 208 214 219 219 218 218 216 219 228 236 240 241 242 244 247 248 249 250 249 248 245 239 233 228 223 220 217 215 212 209 204 199 195 193 192 192 193 193 192 191 190 191 190 188 187 187 188 191 196 195 192 188
323 323 321 320 319 318 317 316 315 314 313 312 311 311 313 316 319 319 316 315 316 314 302 281 260 245 237 222 210 206 209 211 212 212 212 213 212 211 215 217 216 216 223 232 237 238 239 241 244 246 247 248 249 248 245 240 234 228 224 220 216 212 208 204 199 196 193 191 191 191 192 192 190 188 188 190 190 189 188 188 189 193 195 192 189 186
318 318 317 316 315 314 314 313 313 312 310 308 307 307 308 314 317 316 311 312 316 312 296 280 264 256 247 235 224 217 212 209 210 212 214 214 212 209 211 213 211 211 216 226 233 235 235 237 239 241 242 244 246 246 244 240 234 228 222 217 213 208 204 199 196 193 191 191 191 191 192 191 190 189 189 191 191 191 189 190 191 193 192 189 186 186
318 317 316 316 315 314 314 313 312 312 311 309 307 304 304 309 310 307 303 308 312 306 289 276 268 268 256 244 238 232 222 214 211 212 214 213 213 214 210 207 205 203 206 217 228 232 231 233 234 236 237 238 240 241 241 237 232 226 220 214 208 203 199 195 193 192 191 190 191 191 192 192 192 191 192 193 193 192 191 192 192 191 188 186 185 186
318 317 316 315 314 314 313 312 311 310 310 310 308 306 304 301 296 294 296 303 305 301 287 277 270 266 264 255 249 241 231 222 218 215 213 210 212 218 211 201 197 197 198 201 216 227 228 229 230 230 231 233 233 233 232 229 224 219 214 209 204 199 195 193 191 191 191 191 191 191 192 192 192 192 192 193 193 194 193 193 191 189 185 185 185 185
319 317 316 314 313 313 312 310 309 308 308 308 307 306 303 296 287 283 287 293 296 295 288 281 272 265 262 261 260 249 236 229 225 221 214 209 210 212 204 194 192 193 192 183 175 224 229 228 226 224 224 225 225 223 221 217 212 208 204 201 198 195 193 191 191 191 191 191 191 191 191 190 189 190 190 191 193 193 194 192 189 186 184 184 184 184
319 317 316 314 313 312 310 309 307 307 306 305 305 304 300 294 286 280 280 281 283 284 284 282 276 266 257 255 254 250 235 229 228 225 217 210 209 209 200 190 191 195 195 187 170 44 245 234 223 218 217 217 216 214 211 207 203 199 195 193 191 190 191 191 191 190 191 191 192 191 190 188 187 186 187 188 190 192 192 190 187 184 183 183 182 182
317 315 314 313 311 310 309 307 306 305 305 304 303 301 298 293 288 282 277 273 271 271 273 276 276 271 260 252 246 248 253 238 233 227 218 212 211 213 209 197 194 197 199 196 194 193 198 228 214 209 208 208 207 206 205 202 198 194 191 188 186 186 188 189 190 190 190 191 191 191 189 187 186 185 185 186 188 189 189 187 185 183 183 182 181 180
314 313 312 311 310 309 307 306 306 305 304 303 301 300 297 294 290 286 282 276 270 265 263 266 269 270 265 258 253 253 256 251 242 231 220 212 208 209 209 202 198 198 199 199 201 205 204 192 191 196 200 201 200 199 199 198 196 193 190 186 184 184 185 187 188 188 187 188 188 188 188 187 186 185 185 186 186 187 186 185 184 184 184 183 181 179
313 312 311 310 309 308 307 306 306 305 304 303 301 300 298 295 292 290 287 283 278 272 265 261 260 262 264 263 259 256 255 251 245 236 223 211 206 205 204 200 197 197 197 201 207 213 214 190 179 180 193 198 197 194 193 193 194 193 190 187 184 183 183 184 185 185 184 184 185 185 185 185 186 186 185 185 185 185 185 185 186 187 187 186 183 180
313 312 312 311 310 309 308 307 307 306 305 304 303 301 299 297 295 293 290 288 285 281 275 267 261 258 259 261 262 260 257 252 245 237 225 213 208 206 204 202 199 197 195 201 206 208 200 185 180 178 180 192 196 194 190 189 191 191 190 188 185 183 182 183 183 182 182 181 181 182 182 183 184 184 184 184 184 185 185 186 188 189 190 189 187 184
313 312 312 313 312 311 309 308 308 307 306 305 304 303 302 300 298 296 294 292 290 288 285 279 271 263 258 257 258 261 262 259 251 239 227 217 211 207 205 206 204 200 197 199 203 204 198 187 184 183 180 184 193 196 192 188 188 188 189 187 185 184 183 183 183 181 180 179 179 179 180 181 181 182 183 185 186 187 188 188 189 189 189 190 190 189
313 313 314 314 314 313 311 310 309 308 307 306 305 304 303 301 300 299 298 297 296 294 293 290 283 275 266 260 257 258 262 265 261 248 233 222 215 211 208 209 208 205 201 200 202 203 201 191 185 187 187 189 192 195 194 187 185 184 185 185 184 183 182 183 182 181 179 178 178 178 180 180 180 181 182 185 186 188 188 189 189 190 189 190 191 192
313 313 314 315 315 315 314 314 313 311 310 308 307 305 304 302 300 299 299 298 297 297 296 295 292 286 277 268 261 260 261 264 264 256 241 228 219 214 211 210 210 209 207 205 203 201 198 191 183 186 195 198 197 194 190 185 181 181 182 183 183 182 181 181 181 180 179 178 178 178 179 179 179 179 180 181 182 183 183 185 187 188 188 189 190 192
312 312 313 314 315 316 316 316 315 315 314 313 310 308 306 304 302 300 299 297 296 295 294 294 292 289 284 276 269 265 263 263 263 259 250 236 224 217 213 211 210 210 210 209 206 202 199 198 196 193 193 197 196 193 189 186 182 179 178 179 180 180 180 180 180 179 178 177 177 177 177 178 178 177 178 179 179 178 179 180 183 184 185 185 186 188
311 310 310 311 311 311 312 312 312 313 313 312 311 309 307 305 303 300 298 296 294 293 292 292 291 289 286 281 275 269 265 262 261 260 255 244 232 222 216 213 211 210 210 208 206 203 202 203 203 202 198 196 192 188 186 187 185 179 174 172 176 180 180 180 179 179 178 177 176 176 176 176 176 176 177 177 178 178 179 179 181 182 183 183 181 181
310 309 309 309 309 308 307 306 306 306 306 306 306 306 304 303 300 298 296 294 294 293 293 293 293 291 287 280 274 269 263 260 259 259 257 251 240 228 220 216 214 212 208 206 205 204 203 204 205 205 202 198 192 187 186 189 186 181 175 175 177 179 180 180 179 179 178 178 178 177 176 176 176 177 178 179 180 181 181 181 180 181 183 184 183 180
309 308 309 309 309 308 307 305 304 303 302 302 301 301 300 298 295 292 291 291 291 292 293 294 294 293 289 281 271 262 255 253 254 257 258 255 247 236 226 220 216 213 209 205 203 204 205 205 205 204 201 197 191 187 188 190 188 185 182 179 176 174 176 179 181 180 178 178 178 178 177 176 177 179 179 180 181 182 183 182 182 182 183 184 184 184
308 307 307 308 308 308 307 307 306 304 303 301 300 301 303 301 298 294 292 290 288 287 288 289 290 292 292 287 277 263 251 248 250 254 257 257 252 243 232 223 218 214 210 204 202 203 205 205 205 204 202 196 191 187 186 187 189 190 188 182 174 167 169 178 181 181 179 179 178 178 178 178 178 179 179 180 181 182 182 183 184 184 184 184 184 185
303 304 305 306 307 307 308 307 307 306 305 304 304 305 307 307 306 304 301 296 292 288 285 283 283 285 288 289 287 279 264 252 249 252 256 257 254 246 236 226 220 216 213 206 202 202 202 203 205 205 201 196 192 188 186 185 188 190 190 185 179 176 177 179 179 179 179 179 179 179 179 178 178 178 178 179 180 181 181 182 183 185 186 186 186 185
299 300 302 304 305 306 306 306 306 306 305 303 302 302 302 302 302 302 301 299 296 292 287 282 279 278 279 283 288 288 278 262 251 249 252 255 254 248 238 228 221 216 214 211 207 203 199 200 202 202 199 196 193 190 187 186 187 189 191 188 186 184 183 180 178 178 178 178 179 179 179 178 177 176 176 178 179 180 181 181 183 184 186 186 186 186
299 299 300 301 302 302 303 303 304 304 303 302 301 299 298 297 296 294 293 293 293 294 294 292 288 282 277 280 284 287 283 270 253 244 244 248 249 245 237 228 221 217 213 212 211 209 206 204 201 198 193 192 193 194 192 189 187 188 189 189 188 186 183 180 179 179 179 179 179 179 178 177 175 173 174 176 178 180 181 182 183 184 185 186 186 187
306 304 302 300 299 299 300 301 301 301 301 300 300 299 297 295 292 290 288 287 287 289 293 295 295 292 287 284 281 280 279 275 260 243 236 238 241 241 235 228 222 219 215 213 211 211 211 209 204 197 191 188 190 194 194 192 189 188 188 188 187 184 181 180 181 181 180 179 178 177 176 174 173 173 174 175 177 180 182 184 185 187 187 187 187 187
315 312 308 305 302 300 299 299 299 298 298 298 298 298 297 295 293 291 290 288 286 286 287 288 290 290 289 286 281 277 275 275 270 255 238 232 235 237 236 231 226 222 218 214 212 211 210 209 205 200 195 191 190 192 192 192 191 190 189 187 186 184 183 182 182 182 181 180 179 177 175 174 174 174 173 172 174 179 182 185 186 188 188 188 188 188
317 315 312 309 306 303 301 299 298 296 295 295 297 298 298 298 298 297 296 294 293 292 290 289 288 288 289 289 288 285 280 276 272 264 250 236 232 233 234 232 229 225 221 217 214 212 211 209 207 204 201 197 195 192 190 190 191 191 189 187 187 186 184 183 182 181 181 180 179 178 177 177 177 176 172 170 172 176 180 184 186 188 189 189 189 189
314 313 311 310 308 306 304 302 300 298 296 295 296 296 296 295 294 293 293 293 294 293 292 290 289 288 286 286 288 289 287 283 277 269 258 243 232 229 229 228 226 222 219 215 213 211 210 210 209 207 205 203 199 195 190 188 188 189 188 188 188 187 184 182 182 181 181 179 178 178 178 178 178 177 174 173 173 176 178 182 185 188 189 190 190 190
311 311 310 309 308 307 306 305 303 301 299 297 295 293 292 290 289 287 286 286 286 286 285 285 284 282 281 280 281 282 283 283 282 276 266 249 234 225 224 222 219 214 208 206 204 201 200 203 209 211 210 207 203 199 194 188 184 183 185 188 188 187 184 182 181 181 180 179 178 177 177 177 176 176 175 175 175 175 177 180 184 187 188 189 189 190